Change the Weather History Date:

Saturday, March 22, 2014

  Actual Average Record
Temperature  
Mean Temperature 36 °F 45 °F  
Max Temperature 50 °F 61 °F 83 °F (2009)
Min Temperature 22 °F 28 °F 8 °F (1955)
Degree Days  
Heating Degree Days 29 20  
Month to date heating degree days 541 527  
Since 1 July heating degree days 4822 4838  
Cooling Degree Days 0 0  
Month to date cooling degree days 0 0  
Year to date cooling degree days 0 0  
Moisture  
Dew Point 21 °F    
Average Humidity 60    
Maximum Humidity 88    
Minimum Humidity 31    
Precipitation  
Precipitation 0.02 in 0.03 in 0.50 in (1924)
Month to date precipitation 0.26 0.62  
Year to date precipitation 0.53 1.29  
Sea Level Pressure  
Sea Level Pressure 30.29 in    
Wind  
Wind Speed 15 mph (East)    
Max Wind Speed 36 mph    
Max Gust Speed 42 mph    
Visibility 6 miles    
Events Fog , Snow    
T = Trace of Precipitation, MM = Missing Value Source: NWS Daily Summary

Daily Weather History Graph

Daily Weather History Graph

Search for Another Location

Airport or City:

Trip Planner

Search our weather history database for the weather conditions in past years. The results will help you decide how hot, cold, wet, or windy it might be!

Date:

Astronomy

Mar. 22, 2014 Rise Set
Actual Time 6:51 AM MDT 7:04 PM MDT
Civil Twilight 6:24 AM MDT 7:30 PM MDT
Nautical Twilight 5:54 AM MDT 8:01 PM MDT
Astronomical Twilight 5:22 AM MDT 8:33 PM MDT
Moon 12:21 AM MDT (3/22) 10:41 AM MDT (3/22)
Length of Visible Light 13h 06m
Length of Day
12h 13m
Waning Gibbous, 65% of the Moon is Illuminated
Mar 22
Waning Gibbous
Mar 23
Last Quarter
Mar 30
New
Apr 7
First Quarter
Apr 15
Full

Hourly Weather History & Observations

Time (MDT) Temp. Windchill Dew Point Humidity Pressure Visibility Wind Dir Wind Speed Gust Speed Precip Events Conditions
12:53 AM 37.9 °F 29.2 °F 19.0 °F 47% 30.12 in 10.0 mi East 15.0 mph - N/A   Clear
1:53 AM 34.0 °F 24.6 °F 19.9 °F 56% 30.14 in 10.0 mi East 13.8 mph - N/A   Clear
2:53 AM 32.0 °F 21.6 °F 21.9 °F 66% 30.14 in 10.0 mi East 15.0 mph - N/A   Clear
3:53 AM 28.9 °F 20.4 °F 21.9 °F 75% 30.15 in 10.0 mi East 9.2 mph - N/A   Clear
4:53 AM 27.0 °F 18.7 °F 21.0 °F 78% 30.15 in 10.0 mi ESE 8.1 mph - N/A   Mostly Cloudy
5:29 AM 28.9 °F 19.8 °F 21.9 °F 75% 30.17 in 10.0 mi East 10.4 mph - N/A   Overcast
5:53 AM 28.9 °F 19.2 °F 21.9 °F 75% 30.17 in 10.0 mi East 11.5 mph - N/A   Overcast
6:53 AM 28.0 °F 16.1 °F 21.9 °F 78% 30.20 in 10.0 mi ESE 16.1 mph - N/A   Overcast
7:53 AM 28.9 °F 17.3 °F 21.9 °F 75% 30.23 in 10.0 mi ESE 16.1 mph - N/A   Overcast
8:53 AM 30.0 °F 21.1 °F 23.0 °F 75% 30.23 in 10.0 mi SE 10.4 mph - N/A   Overcast
9:53 AM 30.9 °F 19.1 °F 23.0 °F 72% 30.22 in 10.0 mi SE 18.4 mph - N/A   Overcast
10:53 AM 33.1 °F 23.0 °F 23.0 °F 66% 30.19 in 10.0 mi SE 15.0 mph - N/A   Overcast
11:53 AM 39.0 °F 29.3 °F 21.9 °F 50% 30.15 in 10.0 mi SE 19.6 mph 24.2 mph N/A   Mostly Cloudy
12:01 PM 39.0 °F 29.0 °F 21.9 °F 50% 30.14 in 10.0 mi SE 20.7 mph 25.3 mph N/A   Scattered Clouds
12:53 PM 44.1 °F 36.5 °F 21.0 °F 40% 30.11 in 10.0 mi SE 17.3 mph 27.6 mph N/A   Clear
2:53 PM 48.9 °F - 19.9 °F 32% 30.06 in 10.0 mi ESE 19.6 mph 26.5 mph N/A   Clear
3:53 PM 48.9 °F - 21.0 °F 33% 30.07 in 10.0 mi ESE 17.3 mph 27.6 mph N/A   Clear
4:53 PM 46.9 °F - 21.0 °F 36% 30.12 in 10.0 mi East 21.9 mph 29.9 mph N/A   Overcast
5:53 PM 36.0 °F 23.2 °F 18.0 °F 48% 30.21 in 6.0 mi NE 28.8 mph 39.1 mph N/A   Haze
6:53 PM 30.0 °F 14.7 °F 18.0 °F 61% 30.30 in 8.0 mi NE 31.1 mph 35.7 mph N/A   Overcast
7:53 PM 28.9 °F 18.2 °F 18.0 °F 64% 30.36 in 10.0 mi ENE 13.8 mph - N/A   Overcast
8:32 PM 28.9 °F 17.7 °F 21.0 °F 72% 30.33 in 2.0 mi ENE 15.0 mph - 0.00 in Snow Light Snow
8:39 PM 28.0 °F 16.5 °F 21.9 °F 78% 30.33 in 1.5 mi ENE 15.0 mph - 0.00 in Snow Light Snow
8:46 PM 27.0 °F 15.6 °F 23.0 °F 85% 30.34 in 1.0 mi ENE 13.8 mph - 0.00 in Snow Light Snow
8:50 PM 26.6 °F 13.8 °F 23.0 °F 86% 30.34 in 0.8 mi NE 17.3 mph - 0.00 in Snow Light Snow
8:53 PM 26.1 °F 13.6 °F 21.9 °F 84% 30.42 in 0.5 mi NE 16.1 mph - 0.00 in Fog , Snow Snow
9:01 PM 25.0 °F 12.6 °F 21.9 °F 88% 30.35 in 0.8 mi NE 15.0 mph - 0.00 in Snow Light Snow
9:45 PM 24.1 °F 12.5 °F 21.0 °F 88% 30.39 in 0.5 mi ENE 12.7 mph - 0.01 in Fog , Snow Snow
9:53 PM 24.1 °F 14.4 °F 21.0 °F 88% 30.46 in 0.5 mi ENE 9.2 mph - 0.02 in Fog , Snow Snow
10:16 PM 23.0 °F 11.7 °F 19.9 °F 88% 30.40 in 0.8 mi ENE 11.5 mph - 0.00 in Snow Light Snow
10:26 PM 23.0 °F 11.7 °F 19.9 °F 88% 30.41 in 1.0 mi NE 11.5 mph - 0.00 in Snow Light Snow
10:30 PM 23.0 °F 11.1 °F 19.9 °F 88% 30.41 in 1.5 mi ENE 12.7 mph - 0.00 in Snow Light Snow
10:43 PM 23.0 °F 11.7 °F 19.0 °F 85% 30.42 in 2.5 mi ENE 11.5 mph - 0.00 in Snow Light Snow
10:51 PM 23.0 °F 13.1 °F 19.4 °F 86% 30.42 in 3.0 mi ENE 9.2 mph - 0.00 in Snow Light Snow
10:53 PM 23.0 °F 12.4 °F 19.0 °F 85% 30.50 in 3.0 mi ENE 10.4 mph - 0.00 in Snow Light Snow
11:01 PM 23.0 °F 13.9 °F 19.0 °F 85% 30.42 in 2.0 mi ENE 8.1 mph - 0.00 in Snow Light Snow
11:07 PM 21.9 °F 11.7 °F 19.0 °F 89% 30.42 in 1.8 mi ENE 9.2 mph - 0.00 in Snow Light Snow
11:24 PM 21.9 °F 14.5 °F 19.0 °F 89% 30.42 in 1.5 mi East 5.8 mph - 0.00 in Snow Light Snow
11:33 PM 21.9 °F 12.5 °F 18.0 °F 85% 30.42 in 2.0 mi East 8.1 mph - 0.00 in Snow Light Snow
11:43 PM 21.9 °F 11.7 °F 18.0 °F 85% 30.42 in 3.0 mi ENE 9.2 mph - 0.00 in   Overcast
11:53 PM 21.9 °F 12.5 °F 18.0 °F 85% 30.49 in 4.0 mi ENE 8.1 mph - 0.00 in   Overcast